Wind_Speed
87 88 91 94 97 99 99 99 98 98 97 98 99 99 98 98 98 99 101 103 106 109 112 115 116 117 117 117 116 116 116 116 116 116 116 116 115 115 114 114 113 112
89 91 95 98 100 101 101 100 99 99 99 100 100 99 99 99 100 102 104 107 111 114 117 118 119 118 118 118 117 117 117 116 116 116 115 114 113 112 110 109 109 108
92 95 99 102 103 103 102 102 100 100 101 102 101 101 101 101 103 106 109 112 116 118 120 120 120 120 119 118 118 117 117 117 116 115 113 111 110 108 107 106 105 105
96 100 103 104 105 104 104 102 101 101 103 103 102 102 102 104 106 110 113 117 119 121 121 121 121 120 120 119 119 118 117 115 114 112 110 109 107 106 105 104 103 102
101 103 105 106 106 106 105 103 103 104 105 103 103 103 104 106 110 113 117 120 122 122 122 122 122 121 121 120 119 117 115 114 112 110 109 107 106 104 103 103 102 101
104 105 106 107 107 106 105 105 105 105 104 103 104 105 107 110 114 117 120 122 123 123 123 123 122 122 120 119 117 115 113 112 110 109 108 107 105 104 103 102 102 101
105 107 108 108 107 105 105 106 105 104 104 104 105 107 111 114 117 120 123 124 124 124 124 124 122 121 119 117 115 113 111 110 109 108 107 106 105 104 103 102 102 102
108 109 109 108 106 106 106 106 105 104 104 106 108 111 114 118 121 123 124 125 125 125 125 123 122 120 118 115 113 112 110 109 108 107 106 105 104 104 103 103 102 102
109 109 108 107 106 107 107 105 104 104 106 108 111 114 117 121 123 125 126 127 127 126 124 123 120 118 116 114 112 110 109 108 107 106 105 105 104 104 103 102 102 101
109 108 107 107 107 107 106 105 105 106 108 111 114 117 121 124 126 128 128 128 127 126 124 121 119 116 114 112 110 109 108 107 106 105 105 104 103 103 103 102 102 101
109 108 108 108 108 106 106 105 106 108 111 114 117 121 124 127 129 130 130 129 127 125 123 120 117 115 112 110 109 107 106 105 104 104 103 103 102 102 102 101 101 100
109 109 109 108 107 107 106 107 108 110 113 117 121 125 128 130 131 131 129 128 127 125 122 118 115 113 111 109 107 106 105 104 103 103 102 102 101 101 100 100 99 99
110 109 109 108 107 107 108 109 111 114 118 122 126 129 131 132 131 130 129 128 126 123 119 116 113 111 109 107 106 105 103 102 102 101 100 100 99 99 98 98 97 97
110 109 108 108 108 109 110 112 115 119 123 127 130 132 133 132 131 130 128 126 124 120 116 113 111 109 107 106 105 103 102 101 100 99 98 98 97 96 96 95 95 95
109 108 109 109 110 111 113 117 121 125 128 131 133 134 134 132 131 129 127 124 121 117 114 111 109 108 106 105 103 102 100 99 98 97 96 95 94 94 93 93 92 92
108 109 110 111 113 116 120 124 127 130 133 135 136 135 134 132 130 128 125 122 118 115 112 110 108 107 105 103 101 100 98 97 96 95 94 93 92 91 91 90 90 89
110 112 114 116 119 123 127 130 132 134 136 137 137 136 134 132 129 126 123 119 116 113 111 109 107 105 104 102 100 99 97 96 95 93 92 91 90 89 89 88 87 86
114 116 119 122 126 130 132 134 136 138 139 139 138 136 134 131 128 124 121 118 115 112 110 107 106 104 103 101 100 98 96 94 93 92 91 90 89 88 87 86 85 84
120 122 126 130 133 135 136 138 140 141 141 140 139 137 134 130 126 123 119 117 114 111 109 107 105 104 102 101 99 98 96 94 92 91 90 89 88 87 86 85 84 83
125 128 132 136 138 139 141 142 143 143 143 142 140 137 133 129 125 122 119 116 113 111 108 106 105 104 102 101 99 98 96 94 92 91 89 88 87 86 85 84 83 82
130 134 138 140 142 143 145 146 146 146 145 142 139 135 131 127 124 121 119 116 113 110 109 107 105 104 103 101 100 98 96 94 92 91 89 87 86 84 83 82 81 80
136 140 142 144 146 147 148 149 148 147 146 143 139 134 130 127 124 121 118 116 113 111 109 108 106 104 103 101 99 97 95 93 92 90 88 86 85 83 82 81 80 79
141 144 146 148 149 150 151 151 150 149 146 142 137 132 129 126 124 121 119 116 114 112 110 108 106 104 103 101 99 96 94 92 91 89 88 86 84 82 81 80 79 78
145 147 149 150 152 153 153 153 152 150 145 140 135 131 129 126 124 121 119 117 115 113 110 108 106 104 102 100 97 95 93 91 90 89 87 85 83 82 80 79 78 77
149 150 152 153 154 155 155 154 152 147 142 137 133 130 128 126 124 121 119 117 114 112 109 107 105 103 101 99 96 94 92 90 89 88 86 84 83 81 79 78 77 77
151 153 155 156 156 156 156 153 148 143 138 135 132 129 128 125 123 121 118 116 113 111 108 106 104 102 100 97 95 92 90 89 88 87 85 83 82 80 79 77 77 76
Wind_Direction
293 294 294 295 295 295 295 294 294 293 292 291 290 291 292 295 297 299 302 304 305 306 306 306 304 303 302 300 299 297 296 294 293 292 291 290 289 288 287 286 285 284
291 292 293 294 294 294 294 293 293 292 291 291 291 292 295 297 300 302 305 306 307 307 307 305 304 303 302 300 299 297 296 295 293 292 292 291 290 288 287 286 285 284
289 290 292 293 294 294 294 294 293 292 291 291 292 295 297 300 303 306 307 308 308 307 306 305 304 303 302 301 299 298 297 296 295 294 293 292 290 289 288 286 285 284
289 290 292 293 294 294 294 293 292 291 291 292 294 297 301 304 306 308 308 308 308 307 306 305 304 303 302 301 300 299 298 297 296 294 293 292 290 289 288 287 286 284
290 291 293 294 294 294 293 292 291 291 292 294 297 300 303 306 307 308 308 308 307 306 306 305 305 304 303 302 301 300 298 297 296 294 293 292 291 289 288 287 286 284
291 292 293 293 292 292 291 291 290 292 294 296 299 302 305 307 308 308 308 308 307 306 306 306 305 305 304 302 301 300 298 297 296 294 293 292 291 290 289 287 286 285
292 292 291 291 291 290 290 290 291 294 296 299 302 305 307 308 308 308 308 308 307 307 306 306 306 305 303 302 301 299 298 297 296 294 293 292 291 290 289 288 287 285
291 291 291 290 290 289 290 291 293 296 300 303 305 307 308 308 309 308 308 308 307 307 307 306 305 304 303 302 300 299 298 297 296 295 294 293 292 290 289 288 287 286
290 290 290 289 289 289 291 293 296 299 302 305 307 308 308 309 309 309 309 308 308 307 307 306 305 304 302 301 300 299 298 297 296 295 294 293 292 291 290 288 287 286
289 289 289 289 289 291 293 295 298 302 304 306 307 308 309 309 309 309 309 308 308 307 306 305 304 303 302 301 300 299 298 297 296 295 294 293 292 291 289 288 288 287
288 288 288 289 290 292 295 298 301 304 306 307 308 309 310 310 310 309 309 308 307 307 306 305 304 303 302 301 300 299 298 297 296 295 293 292 291 290 290 289 288 287
288 288 289 290 292 294 297 300 303 305 307 308 309 310 310 310 310 309 308 308 307 306 305 305 304 302 301 300 299 298 297 296 295 294 293 292 291 291 290 289 288 287
288 289 290 292 294 297 300 302 305 307 308 309 310 310 310 310 309 309 308 307 307 306 305 304 303 302 301 300 299 298 297 296 295 294 293 292 292 291 290 289 288 287
289 291 292 295 297 300 303 305 307 309 310 310 311 311 310 310 309 308 308 307 306 305 304 303 303 302 301 300 299 298 297 296 295 294 293 292 291 290 289 289 288 287
292 294 296 299 301 304 306 308 310 310 311 311 311 311 310 309 309 308 307 306 305 305 304 303 302 301 300 299 299 298 297 296 295 294 293 292 291 290 289 288 288 287
296 299 301 304 306 308 309 310 311 311 311 311 311 310 310 309 308 308 307 306 305 304 304 303 302 301 300 299 298 298 297 296 295 294 294 292 291 290 290 289 288 287
301 304 306 308 309 310 311 311 311 311 311 311 311 310 310 309 308 307 307 306 305 305 304 303 302 301 300 299 299 298 297 297 296 295 294 293 292 291 290 290 289 288
306 308 309 310 311 311 311 312 312 312 312 311 311 310 310 309 308 307 307 306 306 305 304 303 302 302 301 300 299 298 298 297 297 296 295 294 293 292 292 291 291 290
309 310 311 311 311 311 312 312 312 312 311 311 311 310 309 309 308 308 307 306 306 305 305 304 303 302 301 301 300 299 299 298 298 297 296 295 294 294 293 293 292 291
311 311 311 311 311 312 312 312 312 312 311 311 311 310 309 309 308 308 307 307 306 306 305 304 303 303 302 301 301 300 300 299 298 298 297 296 295 295 294 294 293 292
311 311 311 311 312 312 312 312 312 312 311 311 310 310 309 309 308 308 308 307 307 306 305 305 304 303 303 302 301 301 300 300 299 298 297 297 296 296 295 294 293 292
310 310 311 311 312 312 312 312 312 312 311 311 310 310 309 309 308 308 308 307 307 307 306 305 304 304 303 302 301 301 300 300 299 298 298 297 297 296 295 294 293 292
310 310 311 311 311 312 312 312 312 311 311 310 310 310 309 309 308 308 308 308 307 307 306 305 304 304 303 302 301 300 300 300 299 298 298 298 297 296 295 294 293 292
310 310 310 311 311 312 311 311 311 311 310 310 309 309 309 309 309 308 308 308 307 306 305 304 304 303 302 301 300 300 300 299 299 299 298 298 298 297 296 294 293 292
309 310 310 311 311 311 311 311 310 310 309 309 309 309 309 309 308 308 308 307 306 305 305 304 303 302 301 301 300 300 300 299 299 299 298 298 297 297 295 294 293 292
309 309 310 310 310 310 310 310 309 309 309 309 309 309 308 308 308 307 307 306 305 305 304 303 303 302 301 300 300 300 300 299 299 298 298 298 297 296 295 294 293 293
Height
10617 10613 10610 10607 10603 10600 10596 10592 10588 10584 10580 10576 10572 10567 10562 10556 10551 10545 10539 10534 10528 10523 10518 10512 10506 10500 10493 10486 10479 10472 10465 10459 10453 10446 10441 10435 10429 10424 10418 10413 10407 10402
10607 10604 10601 10598 10594 10590 10586 10581 10577 10573 10569 10564 10559 10554 10548 10542 10536 10530 10525 10519 10514 10509 10503 10497 10490 10482 10475 10468 10461 10454 10447 10440 10434 10428 10422 10417 10411 10406 10401 10395 10390 10385
10598 10595 10591 10588 10583 10579 10575 10570 10566 10562 10557 10551 10546 10539 10533 10527 10521 10516 10511 10505 10499 10493 10486 10479 10472 10464 10457 10449 10442 10435 10428 10421 10415 10410 10404 10398 10392 10387 10381 10377 10372 10367
10588 10585 10581 10576 10572 10567 10563 10559 10554 10550 10544 10538 10532 10525 10519 10513 10507 10501 10495 10489 10483 10476 10469 10461 10453 10445 10437 10430 10422 10415 10409 10403 10396 10390 10385 10379 10374 10368 10363 10359 10354 10350
10577 10573 10569 10564 10560 10556 10552 10548 10543 10537 10531 10524 10517 10511 10505 10499 10493 10487 10480 10473 10466 10458 10450 10442 10434 10426 10419 10411 10404 10397 10390 10384 10378 10371 10365 10360 10355 10350 10346 10341 10337 10333
10565 10561 10557 10553 10549 10545 10540 10535 10530 10524 10517 10510 10503 10497 10491 10484 10478 10471 10464 10456 10448 10440 10432 10424 10417 10409 10401 10394 10386 10379 10372 10366 10359 10353 10347 10341 10336 10332 10328 10323 10319 10316
10553 10549 10545 10541 10537 10533 10528 10522 10516 10510 10502 10495 10489 10482 10476 10469 10462 10454 10446 10438 10429 10421 10414 10407 10400 10392 10384 10377 10369 10362 10355 10348 10342 10336 10330 10324 10319 10314 10310 10306 10302 10298
10541 10537 10533 10529 10524 10519 10514 10508 10502 10495 10488 10481 10474 10468 10461 10453 10445 10436 10428 10420 10411 10404 10397 10390 10383 10375 10367 10360 10352 10345 10338 10331 10325 10319 10313 10308 10303 10298 10293 10289 10285 10281
10528 10524 10519 10515 10510 10505 10500 10494 10487 10481 10474 10466 10459 10452 10444 10435 10427 10418 10410 10402 10395 10388 10381 10374 10366 10358 10350 10343 10336 10328 10322 10315 10309 10303 10297 10291 10286 10281 10276 10272 10267 10264
10515 10510 10505 10501 10496 10491 10484 10478 10472 10466 10459 10451 10443 10435 10426 10418 10409 10401 10393 10386 10378 10371 10364 10357 10350 10342 10334 10326 10320 10313 10306 10300 10294 10287 10281 10275 10270 10264 10260 10255 10251 10247
10501 10496 10491 10487 10481 10475 10469 10463 10457 10451 10443 10434 10426 10417 10409 10402 10394 10385 10377 10369 10361 10354 10347 10340 10333 10325 10317 10310 10304 10298 10292 10285 10279 10272 10266 10260 10254 10249 10244 10240 10236 10231
10486 10481 10476 10471 10466 10460 10454 10448 10442 10435 10427 10418 10409 10401 10394 10387 10378 10369 10361 10352 10344 10337 10330 10324 10316 10309 10302 10295 10289 10283 10277 10270 10264 10257 10251 10245 10240 10235 10230 10225 10221 10216
10471 10466 10461 10455 10449 10444 10438 10432 10425 10418 10410 10401 10393 10386 10378 10371 10362 10353 10345 10336 10327 10320 10314 10307 10300 10293 10286 10280 10274 10268 10262 10256 10249 10243 10237 10231 10225 10221 10216 10211 10207 10202
10456 10450 10444 10438 10433 10427 10421 10415 10409 10401 10393 10385 10377 10370 10362 10354 10346 10337 10328 10319 10311 10304 10297 10291 10284 10277 10271 10264 10258 10253 10247 10241 10235 10228 10223 10217 10212 10207 10202 10197 10193 10189
10439 10433 10427 10422 10416 10410 10405 10399 10392 10385 10377 10369 10361 10354 10346 10337 10329 10320 10311 10303 10295 10287 10281 10275 10268 10261 10254 10249 10243 10237 10232 10226 10220 10214 10208 10203 10198 10193 10188 10184 10179 10176
10423 10417 10411 10405 10399 10394 10388 10382 10376 10368 10360 10352 10344 10336 10328 10320 10311 10303 10294 10286 10278 10271 10265 10258 10252 10245 10238 10233 10227 10222 10216 10211 10205 10199 10194 10189 10184 10179 10175 10170 10166 10162
10406 10401 10395 10389 10383 10377 10371 10365 10359 10351 10343 10335 10327 10318 10310 10302 10293 10285 10277 10270 10262 10255 10249 10242 10235 10228 10222 10216 10211 10205 10201 10196 10190 10185 10179 10174 10170 10165 10161 10157 10153 10149
10390 10385 10379 10373 10367 10360 10355 10348 10341 10333 10324 10317 10309 10300 10292 10284 10276 10268 10260 10253 10246 10239 10232 10226 10218 10212 10205 10200 10194 10189 10185 10181 10175 10170 10166 10160 10155 10151 10147 10143 10140 10136
10376 10371 10364 10357 10350 10343 10337 10330 10322 10315 10306 10299 10291 10282 10274 10266 10258 10250 10243 10236 10230 10223 10216 10209 10202 10195 10189 10184 10179 10174 10170 10166 10161 10156 10152 10147 10142 10138 10134 10130 10126 10123
10362 10355 10347 10340 10333 10326 10320 10312 10304 10297 10288 10280 10272 10264 10256 10249 10241 10233 10226 10220 10214 10206 10199 10193 10186 10179 10174 10168 10163 10158 10154 10150 10146 10142 10137 10133 10129 10125 10121 10118 10114 10111
10347 10339 10331 10324 10316 10309 10303 10295 10286 10278 10270 10262 10254 10246 10239 10231 10224 10217 10210 10203 10197 10190 10183 10176 10170 10164 10158 10153 10148 10143 10140 10136 10131 10127 10123 10119 10116 10112 10108 10105 10102 10099
10331 10323 10315 10308 10301 10293 10285 10277 10269 10260 10252 10244 10236 10229 10222 10215 10208 10201 10194 10187 10181 10174 10167 10160 10155 10149 10143 10138 10134 10129 10126 10122 10117 10113 10110 10106 10103 10099 10095 10092 10089 10086
10314 10307 10300 10292 10285 10277 10268 10260 10252 10243 10235 10228 10220 10214 10206 10198 10192 10185 10178 10171 10165 10159 10153 10146 10140 10135 10130 10124 10120 10116 10113 10109 10104 10100 10096 10093 10090 10086 10082 10079 10076 10073
10298 10290 10284 10277 10269 10261 10252 10244 10236 10227 10220 10213 10205 10198 10191 10183 10176 10169 10162 10156 10150 10144 10138 10133 10127 10122 10116 10111 10107 10103 10100 10095 10091 10087 10083 10080 10077 10074 10070 10067 10064 10061
10283 10275 10269 10262 10254 10246 10237 10229 10221 10213 10205 10198 10190 10183 10175 10167 10161 10155 10148 10142 10136 10130 10124 10119 10114 10108 10102 10097 10094 10091 10087 10083 10078 10074 10070 10068 10065 10061 10058 10055 10052 10049
10268 10260 10254 10247 10239 10231 10222 10214 10206 10198 10190 10183 10175 10168 10160 10153 10148 10142 10135 10129 10122 10116 10111 10106 10101 10094 10089 10084 10081 10078 10075 10070 10066 10062 10058 10056 10053 10050 10047 10044 10040 10038